カタログに戻る

NOAA 16 DEB

運用中PO
NORAD 41712·DEBRIS·🇺🇸 United States

打ち上げ Sep 21, 2000 から Vandenberg Space Force Base

Loading…

次のパス (今後24時間)

TLE

最新Source: Space-Track

元期: Sep 14, 2026, 05:28 UTC

1 41712U 00055PS  26257.22807839  .00013911  00000-0  24872-2 0  9996
2 41712  98.8345  45.6863 0025507 159.0394 201.1859 14.66799646540188

AllMySatでNOAA 16 DEBをリアルタイム追跡

Download on the App Store